Location: Bethersden
(51.1167°N, 0.7667°E)
Time: 19:45:29
(UTC+00:00)

Daily predictions for brighter satellites

Satellite Brightness Start Highest point End
(mag) Time Altitude Azimuth Time Altitude Azimuth Time Altitude Azimuth
Cosmos 2084 Rocket 3.4 16:35:00 10° SW 16:39:11 80° SE 16:43:24 10° NE
SMAP 3.3 16:38:19 10° SE 16:42:47 47° ENE 16:47:16 10° N
Cosmos 540 Rocket 3.7 16:38:33 10° NNW 16:43:31 46° ENE 16:48:26 10° SE
Cosmos 1869 4.2 16:45:15 10° SE 16:48:03 23° E 16:50:51 10° NE
SWARM A 4.2 16:45:01 10° N 16:48:21 90° NNW 16:51:40 10° S
YAOGAN 1 4.1 16:47:13 10° E 16:49:39 15° ENE 16:52:07 10° NNE
IGS 5A 3.3 16:45:52 10° SSE 16:49:49 76° ENE 16:53:49 10° N
Cosmos 1763 Rocket 3.5 16:46:50 10° NNW 16:52:02 61° ENE 16:57:07 10° SE
SL-16 R/B 2.6 16:46:16 10° NNE 16:52:35 80° ESE 16:58:50 10° SSW
SAR-Lupe-5 4.3 16:52:01 10° NNE 16:54:36 58° ESE 16:57:13 10° S
Landsat 7 4.0 16:50:31 10° SE 16:54:56 45° ENE 16:59:24 10° N
Timation 1 Rocket 4.3 16:51:38 10° NNW 16:57:36 68° NE 17:03:33 10° SE
RESURS DK-1 2.2 16:53:43 10° NNW 16:57:44 65° NE 17:01:42 10° SE
Cosmos 1140 Rocket 3.5 16:54:31 10° SSW 16:59:40 72° ESE 17:04:49 10° NNE
CZ-4C R/B 3.0 16:56:12 10° W 17:00:38 38° NNW 17:06:19 10° NE
Aureole 3 Rocket 3.7 16:58:55 10° SE 17:01:08 19° E 17:03:30 10° NE
UNK 3.8 17:00:57 10° NNE 17:05:32 58° ESE 17:10:04 10° S
Meteor 1-28 Rocket 2.9 17:02:19 10° NNE 17:05:43 84° WNW 17:09:04 10° SSW
Meteor 2-12 Rocket 4.4 17:02:30 10° N 17:08:35 63° ENE 17:14:35 10° SSE
Cosmos 1400 Rocket 4.3 17:08:21 10° ESE 17:10:34 15° E 17:11:08 15° ENE
Cosmos 1536 Rocket 4.4 17:07:20 10° N 17:11:11 28° ENE 17:14:59 10° SE
SJ-12 3.7 17:07:31 10° SSE 17:11:15 58° ENE 17:14:59 10° N
Okean 2 Rocket 4.3 17:14:48 10° SE 17:17:59 20° E 17:20:03 15° NE
Cosmos 1269 Rocket 4.2 17:14:03 10° SSW 17:19:18 75° WNW 17:24:36 10° NNE
CORIOLIS 4.3 17:15:34 10° SSE 17:20:55 79° WSW 17:26:19 10° NNW
IRS-1C 4.1 17:17:05 10° SSE 17:22:25 86° ENE 17:27:46 10° NNW
ATLAS CENTAUR R/B 3.1 17:22:28 10° WNW 17:24:53 17° NNW 17:27:17 10° NNE
SL-12 R/B(2) 4.4 17:18:30 10° SSW 17:26:22 64° ESE 17:35:46 11° NE
COSMO-SKYMED 1 3.7 17:26:49 19° E 17:27:21 20° E 17:30:24 10° SE
Resurs 01 Rocket 3.3 17:30:11 16° NE 17:30:11 16° NE 17:32:09 10° NNE
Thor Agena Rocket 4.5 17:24:32 10° S 17:29:41 53° W 17:34:51 10° NNW
Cosmos 1943 Rocket 2.2 17:24:36 10° SSW 17:30:06 59° ESE 17:35:17 12° NE
Cosmos 1782 Rocket 4.3 17:26:52 10° SSW 17:31:13 56° WNW 17:35:36 10° N
Timation 2 Rocket 4.2 17:24:38 10° SSW 17:31:27 67° ESE 17:38:13 10° NE
Cosmos 841 Rocket 3.9 17:27:44 10° NNW 17:32:42 41° NE 17:37:39 10° SE
Cosmos 2233 Rocket 4.4 17:26:51 10° SSW 17:33:08 70° WNW 17:39:29 10° N
Cosmos 2058 2.8 17:29:24 10° N 17:33:19 55° ENE 17:37:14 10° SSE
Cosmos 2251 Rocket 3.9 17:29:17 10° S 17:34:15 44° ESE 17:38:36 14° NE
BREEZE-M DEB (TANK) 2.8 17:34:35 10° SW 17:37:03 45° SSE 17:39:49 21° E
Cosmos 2082 Rocket 2.1 17:32:17 10° NNW 17:37:56 79° ENE 17:43:34 10° SSE
ATLAS 2AS CENTAUR R/B 3.2 17:31:54 10° NW 17:38:16 39° NNE 17:42:14 21° E
Cosmos 1346 Rocket 4.1 17:36:44 10° NNE 17:38:39 20° NE 17:38:39 20° NE
Cosmos 2061 Rocket 4.4 17:34:35 10° SSW 17:40:50 68° WNW 17:47:05 10° N
Cosmos 2278 Rocket 2.1 17:37:57 10° SSW 17:43:34 70° ESE 17:48:32 14° NE
IRAS Rocket 4.3 17:38:39 10° SE 17:44:02 55° ENE 17:49:25 10° N
Cosmos 1602 2.9 17:41:34 10° N 17:44:38 78° E 17:47:41 10° SSE
MOS 1 Rocket 3.0 17:41:45 10° SSE 17:46:06 80° ENE 17:50:41 10° NNW
Cosmos 1975 Rocket 4.4 17:43:01 10° NNW 17:47:07 42° W 17:51:14 10° SSW
Cosmos 468 Rocket 3.9 17:41:56 10° NNW 17:47:11 90° SW 17:52:20 10° SSE
AQUARIUS 4.3 17:45:00 10° S 17:49:23 73° WSW 17:53:49 10° NNW
Cosmos 1464 Rocket 4.0 17:44:21 10° SSE 17:50:27 55° E 17:56:31 10° NNE
ARIANE 5 R/B 3.2 17:46:16 10° S 17:51:09 55° W 17:56:05 10° NNW
CZ-2D R/B 3.4 17:47:46 10° SSE 17:51:53 64° ENE 17:56:05 10° N
USA 215 4.1 17:49:24 10° SSE 17:55:43 51° SW 18:02:05 10° WNW
Cosmos 1862 2.9 17:52:08 10° N 17:55:46 70° ENE 17:59:23 10° SSE
PSLV R/B 3.4 17:53:46 10° SSE 17:57:41 52° ENE 18:01:37 10° N
Geosat FO 4.2 17:57:42 17° SSE 17:59:46 69° WSW 18:02:39 10° NW
Cosmos 2151 Rocket 3.6 17:56:32 10° S 18:00:58 62° E 18:05:04 12° NNE
Cosmos 1190 Rocket 4.0 17:56:47 10° S 18:01:59 62° ESE 18:05:26 22° NE
ISS -3.8 18:00:08 10° WSW 18:03:28 70° SSE 18:03:52 61° ESE
Cosmos 2034 Rocket 4.1 17:58:32 10° SSE 18:04:27 48° E 18:10:26 10° NNE
Cosmos 1812 2.4 18:02:18 10° SSW 18:05:10 60° WNW 18:06:21 30° N
Cosmos 676 Rocket 4.3 18:00:12 10° S 18:05:10 42° ESE 18:06:43 34° ENE
SKYMED 2 3.5 18:03:51 17° NNE 18:07:09 66° ESE 18:11:27 10° S
Okean 1 Rocket 3.2 18:03:27 10° SSE 18:07:40 47° E 18:08:25 42° ENE
Cosmos 1656 Rocket 4.3 18:02:57 10° SSE 18:07:50 32° ESE 18:08:00 32° ESE
Cosmos 220 Rocket 4.1 18:07:30 10° NNW 18:11:16 46° NE 18:11:16 46° NE
Cosmos 407 Rocket 4.0 18:07:20 10° SW 18:12:26 59° WNW 18:17:08 12° NNE
Sich 1 Rocket 3.7 18:08:58 10° S 18:13:24 55° E 18:14:56 37° NE
COSMOS 2406 3.1 18:07:54 10° NNW 18:13:38 81° ENE 18:19:01 12° SSE
USA 281 3.6 18:11:29 32° E 18:13:38 40° NE 18:19:41 10° NNW
Cosmos 1954 Rocket 3.9 18:09:13 10° S 18:14:25 64° ESE 18:16:53 31° NE
Cosmos 1092 Rocket 4.1 18:09:36 10° N 18:15:42 51° ENE 18:21:42 10° SSE
BlueWalker 3 4.3 18:15:20 10° S 18:15:40 11° SSE 18:15:40 11° SSE
SL-19 R/B 4.0 18:14:01 10° SSE 18:19:14 87° ENE 18:24:31 10° NNW
Cosmos 2026 Rocket 3.9 18:14:43 10° N 18:20:45 60° ENE 18:26:49 10° SSE
SJ 16-02 1.1 18:19:19 10° SSW 18:23:37 79° ESE 18:24:29 56° NE
Cosmos 1072 Rocket 4.5 18:18:02 10° S 18:24:11 83° W 18:30:20 10° N
Cosmos 44 Rocket 3.4 18:19:32 10° SW 18:24:21 74° NW 18:26:14 38° NNE
YAOGAN 1 2.5 18:20:41 10° SSE 18:24:57 81° WSW 18:29:14 10° NNW
SPOT 1/Viking Rocket 3.9 18:21:36 10° S 18:26:44 64° WSW 18:31:55 10° NNW
Cosmos 2344 3.8 18:23:41 10° NW 18:31:27 81° NE 18:38:34 22° SE
Cosmos 2297 Rocket 4.2 18:30:51 10° N 18:33:09 13° NNE 18:33:09 13° NNE
SL-16 R/B 4.5 18:30:35 10° N 18:35:33 25° NW 18:40:30 10° WSW
Meteor 2-3 Rocket 3.6 18:30:58 10° NNW 18:36:43 85° ENE 18:42:21 10° SSE
Spot 4 Rocket 4.5 18:32:26 10° S 18:37:28 61° WSW 18:42:32 10° NNW
Resurs 1-3 3.9 18:35:14 10° S 18:39:29 63° W 18:43:47 10° NNW
Cosmos 1400 Rocket 3.3 18:41:54 10° SSW 18:45:37 53° WNW 18:45:47 52° WNW
Cosmos 304 Rocket 3.7 18:43:42 10° SSW 18:48:27 82° WNW 18:48:47 75° N
Cosmos 371 Rocket 3.2 18:45:29 10° SSW 18:50:18 82° WNW 18:50:35 77° N
CZ-4C R/B 3.8 18:45:54 10° NW 18:50:31 26° N 18:51:49 24° NNE
Cosmos 1627 Rocket 4.4 18:47:22 10° N 18:53:32 86° W 18:59:43 10° S
Okean 2 Rocket 3.8 18:51:17 10° SSW 18:55:34 51° WNW 18:57:21 31° NNW
COSMO-SKYMED 1 3.3 19:03:10 48° W 19:03:10 48° W 19:06:55 10° SW
Resurs 01 Rocket 3.2 19:07:36 27° NNW 19:07:36 27° NNW 19:09:40 10° NNW
Geosat 4.3 19:05:27 56° SSW 19:06:10 63° WSW 19:11:09 10° NW
BREEZE-M DEB (TANK) 3.8 19:08:25 10° WSW 19:11:47 74° SSW 19:11:47 74° SSW
Cosmos 1943 Rocket 3.7 19:09:10 10° WSW 19:14:10 32° NW 19:16:48 22° N
Cosmos 2227 Rocket 4.5 19:19:25 10° N 19:20:29 12° N 19:20:29 12° N
Cosmos 2278 Rocket 3.9 19:23:17 10° WSW 19:28:09 29° NW 19:30:23 22° N
ATLAS 2AS CENTAUR R/B 2.6 19:22:59 10° NW 19:29:41 81° WSW 19:29:41 81° WSW
Cosmos 1634 Rocket 4.4 19:29:52 10° SSW 19:42:27 10° N 19:34:50 56° SW
Cosmos 2369 Rocket 4.3 19:31:01 10° SSW 19:31:59 15° SSW 19:31:59 15° SSW
USA 281 3.7 19:58:22 57° W 19:58:22 57° W 20:04:28 10° NNW
SJ 16-02 4.1 19:59:28 10° W 20:01:03 15° WNW 20:01:03 15° WNW
CZ-4C R/B 4.5 20:34:43 10° NW 20:36:46 21° NNW 20:36:46 21° NNW
